Overview Statistics Trail Chart Weather Telemetry Raw packets
 

This is the latest recevied weather packets stored in our database for station/object OK1FET-4. If no packets are shown the sender has not sent any weather packets the latest 10 day(s).

<< 98 99 100 101 102 103 104 >>
Time Temp. Humidity Pressure Rain* Wind** Luminosity Snow
1787926478 25.56° C 56% 1014.1 hPa - - - -
1787926177 25.56° C 56% 1014 hPa - - - -
1787925875 26.11° C 56% 1014.1 hPa - - - -
1787925574 26.11° C 55% 1013.9 hPa - - - -
1787925272 25.56° C 56% 1014 hPa - - - -
1787924971 25.56° C 56% 1013.9 hPa - - - -
1787924670 25.56° C 55% 1014 hPa - - - -
1787924368 26.11° C 54% 1013.8 hPa - - - -
1787924067 26.11° C 54% 1013.7 hPa - - - -
1787923765 26.67° C 52% 1013.5 hPa - - - -
1787923464 27.78° C 51% 1013.6 hPa - - - -
1787923162 27.78° C 50% 1013.6 hPa - - - -
1787922860 28.33° C 48% 1013.6 hPa - - - -
1787922558 28.89° C 47% 1013.7 hPa - - - -
1787922256 29.44° C 47% 1013.6 hPa - - - -
1787921955 28.89° C 47% 1013.7 hPa - - - -
1787921653 28.89° C 47% 1013.6 hPa - - - -
1787921351 28.89° C 46% 1013.7 hPa - - - -
1787921049 29.44° C 45% 1013.7 hPa - - - -
1787920747 30.56° C 43% 1013 hPa - - - -
1787920445 31.11° C 43% 1012.8 hPa - - - -
1787920142 31.67° C 43% 1012.7 hPa - - - -
1787919840 31.67° C 43% 1012.7 hPa - - - -
1787919538 31.67° C 42% 1012.5 hPa - - - -
1787919235 32.22° C 41% 1012.3 hPa - - - -

* Rain since midnight (hover to see other rain measurements)
** Current wind speed in m/s (hover to see current wind gust speed)